Location: B�di�
(14.6834°N, 3.1047°W)
Time: 15:20:43
(UTC+00:00)

Cosmos 1727 Rocket - Pass Details

Date: 24 January 2020
Orbit: 960 x 997 km, 82.9° (Epoch: 25 February)

Event Time Altitude Azimuth Distance (km) Brightness Sun altitude
Rises 19:03:22 0° 1° (N) 3,635 6.8 -13.7°
Reaches altitude 10° 19:05:54 10° 5° (N) 2,688 6.1 -14.3°
Maximum altitude 19:11:58 63° 86° (E) 1,060 3.9 -15.7°
Drops below altitude 10° 19:18:03 10° 166° (SSE) 2,694 6.3 -17.2°
Sets 19:20:35 0° 169° (S) 3,643 7.1 -17.7°
